GW2041 Weather Reports


Display with metric or nautical units.
time (UTC)temp
F
wind
direction
speed
MPH
gust
MPH
rain 1hr
in
rain 24hr
in
rain mn
in
humidity
%
barometer
mb
20260902123352 71 225 5.0 7.0 0.00 0.00 0.00 66 1019.0
20260902122343 71 180 4.0 7.0 0.00 0.00 0.00 65 1019.0
20260902121336 72 248 4.0 6.0 0.00 0.00 0.00 64 1018.8
20260902120311 73 293 4.0 10.0 0.00 0.00 0.00 63 1018.8
20260902115311 73 248 4.0 9.0 0.00 0.00 0.00 63 1018.9
20260902114748 73 270 4.0 10.0 0.00 0.00 0.00 61 1018.9
20260902113307 74 270 4.0 10.0 0.00 0.00 0.00 60 1018.9
20260902112739 73 248 4.0 9.0 0.00 0.00 0.00 62 1018.9
20260902111737 73 180 4.0 6.0 0.00 0.00 0.00 61 1019.0
20260902110257 73 293 4.0 6.0 0.00 0.00 0.00 62 1019.0
20260902105729 72 135 4.0 6.0 0.00 0.00 0.00 61 1019.2
20260902104245 72 135 4.0 11.0 0.00 0.00 0.00 60 1019.2
20260902103243 72 158 4.0 11.0 0.00 0.00 0.00 61 1019.2
20260902102243 72 203 5.0 8.0 0.00 0.00 0.00 65 1019.2
20260902101243 72 180 5.0 8.0 0.00 0.00 0.00 65 1019.1
20260902100243 72 180 5.0 8.0 0.00 0.00 0.00 65 1019.1
20260902095242 73 158 4.0 9.0 0.00 0.00 0.00 62 1019.1
20260902094241 72 225 4.0 7.0 0.00 0.00 0.00 65 1019.1
20260902093257 72 180 4.0 7.0 0.00 0.00 0.00 63 1019.0
20260902092259 73 225 3.0 5.0 0.00 0.00 0.00 66 1019.0
20260902091239 69 225 3.0 5.0 0.00 0.00 0.00 72 1018.7
20260902090240 67 180 3.0 9.0 0.00 0.00 0.00 71 1018.7
20260902085238 69 180 3.0 6.0 0.00 0.00 0.00 68 1018.2
20260902084237 70 225 4.0 7.0 0.00 0.00 0.00 70 1018.2
20260902083232 68 180 3.0 6.0 0.00 0.00 0.00 75 1018.2
20260902082232 66 225 2.0 4.0 0.00 0.00 0.00 78 1018.2
20260902081238 66 180 3.0 6.0 0.00 0.00 0.00 77 1018.0
20260902080228 62 158 2.0 0.0 0.00 0.00 0.00 83 1017.9
20260902075453 63 90 1.0 4.0 0.00 0.00 0.00 82 1018.2
20260902074455 62 248 2.0 5.0 0.00 0.00 0.00 82 1018.2
20260902073454 62 23 2.0 4.0 0.00 0.00 0.00 83 1017.9
20260902072934 61 248 2.0 4.0 0.00 0.00 0.00 84 1017.9
20260902071451 61 180 2.0 4.0 0.00 0.00 0.00 85 1017.8
20260902070452 60 135 2.0 4.0 0.00 0.00 0.00 86 1017.8
20260902065451 60 180 2.0 4.0 0.00 0.00 0.00 87 1018.0
20260902064934 59 225 2.0 4.0 0.00 0.00 0.00 88 1018.0
20260902063451 58 203 1.0 4.0 0.00 0.00 0.00 88 1017.9
20260902062449 58 180 1.0 4.0 0.00 0.00 0.00 88 1017.9
20260902061930 58 180 1.0 4.0 0.00 0.00 0.00 88 1017.7
20260902060452 58 248 1.0 2.0 0.00 0.00 0.00 89 1017.7
20260902055446 0 135 1.0 3.0 0.00 0.00 0.00 1017.9
20260902054448 0 135 1.0 2.0 0.00 0.00 0.00 1017.9
20260902053449 0 180 1.0 3.0 0.00 0.00 0.00 1017.8
20260902052447 0 180 0.0 3.0 0.00 0.00 0.00 1017.8
20260902051447 0 135 0.0 1.0 0.00 0.00 0.00 1017.9
20260902050923 0 180 1.0 3.0 0.00 0.00 0.00 1017.9
20260902045446 0 158 0.0 3.0 0.00 0.00 0.00 1017.8
20260902044444 0 225 0.0 1.0 0.00 0.00 0.00 1017.8
20260902043444 0 180 0.0 0.0 0.00 0.00 0.00 1017.8
20260902042447 0 180 0.0 0.0 0.00 0.00 0.00 1017.8
20260902041445 0 180 0.0 0.0 0.00 0.00 0.00 1018.0
20260902040445 0 225 0.0 0.0 0.00 0.00 0.00 1018.0
20260902035445 0 180 0.0 0.0 0.00 0.00 0.00 1018.1
20260902034451 0 180 0.0 2.0 0.00 0.00 0.00 1018.1
20260902033443 0 158 0.0 0.0 0.00 0.00 0.00 1018.1
20260902032444 0 180 0.0 2.0 0.00 0.00 0.00 1018.1
20260902031440 0 135 0.0 0.0 0.00 0.00 0.00 1018.6
20260902030442 0 135 0.0 0.0 0.00 0.00 0.00 1018.6
20260902025440 0 180 0.0 1.0 0.00 0.00 0.00 1019.2
20260902024440 0 180 0.0 0.0 0.00 0.00 0.00 1019.2
20260902023442 0 180 0.0 0.0 0.00 0.00 0.00 1018.7
20260902022440 0 158 0.0 0.0 0.00 0.00 0.00 1018.7
20260902021437 0 158 0.0 0.0 0.00 0.00 0.00 1018.6
20260902020440 0 158 0.0 0.0 0.00 0.00 0.00 1018.6
20260902015348 0 158 0.0 1.0 0.00 0.00 0.00 1018.9
20260902013347 0 158 0.0 0.0 0.00 0.00 0.00 1018.7
20260902012346 0 158 0.0 0.0 0.00 0.00 0.00 1018.7
20260902011347 0 135 0.0 0.0 0.00 0.00 0.00 1018.6
20260902010346 0 135 0.0 0.0 0.00 0.00 0.00 1018.6
20260902005823 0 135 0.0 0.0 0.00 0.00 0.00 1018.8
20260902004340 0 135 0.0 0.0 0.00 0.00 0.00 1018.8
20260902003337 0 135 0.0 0.0 0.00 0.00 0.00 1019.2
20260902002338 0 135 0.0 0.0 0.00 0.00 0.00 1019.2
20260902001828 0 135 0.0 0.0 0.00 0.00 0.00 1018.9
20260902000337 0 135 0.0 0.0 0.00 0.00 0.00 1018.9
20260901235334 0 135 0.0 0.0 0.00 0.00 0.00 1018.9
20260901234334 0 135 0.0 0.0 0.00 0.00 0.00 1018.9
20260901232330 0 135 0.0 0.0 0.00 0.00 0.00 1019.1
20260901231334 0 135 0.0 0.0 0.00 0.00 0.00 1019.1
20260901230810 0 45 0.0 0.0 0.00 0.00 0.00 1019.1
20260901225332 0 45 0.0 0.0 0.00 0.00 0.00 1019.0
20260901224336 0 45 0.0 0.0 0.00 0.00 0.00 1019.0
20260901223825 0 45 0.0 0.0 0.00 0.00 0.00 1019.7
20260901222335 0 45 0.0 0.0 0.00 0.00 0.00 1019.7
20260901221336 58 45 0.0 0.0 0.00 0.00 0.00 80 1019.9
20260901220344 58 45 0.0 0.0 0.00 0.00 0.00 80 1019.9
20260901215331 58 45 0.0 0.0 0.00 0.00 0.00 80 1020.1
20260901214809 58 45 0.0 0.0 0.00 0.00 0.00 80 1020.1
20260901213332 58 45 0.0 0.0 0.00 0.00 0.00 80 1020.1
20260901212800 58 45 0.0 0.0 0.00 0.00 0.00 79 1020.1
20260901211326 59 45 0.0 0.0 0.00 0.00 0.00 79 1019.7
20260901210328 59 45 0.0 0.0 0.00 0.00 0.00 79 1019.7
20260901205327 59 45 0.0 0.0 0.00 0.00 0.00 78 1019.9
20260901204327 59 45 0.0 0.0 0.00 0.00 0.00 78 1019.9
20260901203332 59 45 0.0 0.0 0.00 0.00 0.00 77 1019.4
20260901202329 60 45 0.0 0.0 0.00 0.00 0.00 76 1019.4
20260901201328 60 45 0.0 0.0 0.00 0.00 0.00 76 1019.2
20260901200314 60 45 0.0 0.0 0.00 0.00 0.00 75 1019.2
20260901195223 61 45 0.0 0.0 0.00 0.00 0.00 74 1019.2
20260901194221 61 45 0.0 0.0 0.00 0.00 0.00 74 1019.2
20260901193226 61 45 0.0 0.0 0.00 0.00 0.00 73 1019.2
20260901192225 62 45 0.0 0.0 0.00 0.00 0.00 72 1019.2
20260901191229 62 45 0.0 0.0 0.00 0.00 0.00 71 1019.5
20260901190225 63 45 0.0 0.0 0.00 0.00 0.00 70 1019.5
20260901185224 63 45 0.0 0.0 0.00 0.00 0.00 69 1019.4
20260901184224 64 45 0.0 0.0 0.00 0.00 0.00 68 1019.4
20260901183225 64 45 0.0 0.0 0.00 0.00 0.00 67 1019.6
20260901182225 65 45 0.0 0.0 0.00 0.00 0.00 66 1019.6
20260901181222 66 45 0.0 0.0 0.00 0.00 0.00 64 1019.6
20260901180702 67 68 0.0 0.0 0.00 0.00 0.00 63 1019.6
20260901174655 68 315 1.0 3.0 0.00 0.00 0.00 62 1019.7
20260901173223 69 23 1.0 3.0 0.00 0.00 0.00 61 1019.7
20260901172218 69 225 2.0 4.0 0.00 0.00 0.00 60 1019.7
20260901171215 69 203 1.0 3.0 0.00 0.00 0.00 60 1019.5
20260901170213 70 45 1.0 4.0 0.00 0.00 0.00 60 1019.5
20260901165212 70 270 2.0 5.0 0.00 0.00 0.00 59 1019.7
20260901164212 70 248 1.0 3.0 0.00 0.00 0.00 58 1019.7
20260901163214 70 135 2.0 4.0 0.00 0.00 0.00 57 1019.6
20260901162212 71 248 2.0 5.0 0.00 0.00 0.00 56 1019.6
20260901160212 72 158 3.0 6.0 0.00 0.00 0.00 56 1019.4
20260901155212 72 135 2.0 6.0 0.00 0.00 0.00 55 1019.4
20260901154212 72 0 4.0 8.0 0.00 0.00 0.00 54 1019.4
20260901153218 73 293 4.0 7.0 0.00 0.00 0.00 53 1019.1
20260901152212 73 23 3.0 7.0 0.00 0.00 0.00 54 1019.1
20260901151212 73 248 3.0 5.0 0.00 0.00 0.00 55 1019.0
20260901150658 73 68 3.0 9.0 0.00 0.00 0.00 55 1019.0
20260901145216 73 270 3.0 5.0 0.00 0.00 0.00 54 1018.9
20260901144215 73 270 5.0 9.0 0.00 0.00 0.00 53 1018.9
20260901143205 74 68 4.0 8.0 0.00 0.00 0.00 54 1018.8
20260901142205 74 270 4.0 8.0 0.00 0.00 0.00 54 1018.8
20260901141646 74 23 4.0 12.0 0.00 0.00 0.00 55 1018.7
20260901135256 73 248 4.0 10.0 0.00 0.00 0.00 56 1018.4
20260901134745 73 203 5.0 10.0 0.00 0.00 0.00 56 1018.4
20260901133253 73 225 4.0 13.0 0.00 0.00 0.00 58 1018.3
20260901132257 73 270 5.0 9.0 0.00 0.00 0.00 57 1018.3
20260901131728 74 248 5.0 8.0 0.00 0.00 0.00 58 1018.2
20260901130250 74 248 6.0 12.0 0.00 0.00 0.00 57 1018.2
20260901125258 72 248 5.0 12.0 0.00 0.00 0.00 61 1018.1
20260901124252 72 23 6.0 9.0 0.00 0.00 0.00 61 1018.1